User: anonymous   Login
Location: Unspecified
(0.0000°N, 0.0000°E)
Time: 08:43:38
(UTC+00:00)
Language:

COSMOS 2468 - Orbit

View from above orbital plane
View from above orbital plane
View from above satellite
View from above satellite

Ground track
Ground track

The orbit data is extracted from the following two-line orbital elements,

1 37154U 10043C   16150.71056720  .00000028  00000-0  12970-3 0  9991
2 37154  82.4618 200.1330 0015478  38.7217 321.4980 12.43624277259688
Epoch (UTC): 29 May 2016 17:03:13
Eccentricity: 0.0015478
inclination: 82.4618°
perigee height: 1479 km
apogee height: 1503 km
right ascension of ascending node: 200.1330°
argument of perigee: 38.7217°
revolutions per day: 12.43624277
mean anomaly at epoch: 321.4980°
orbit number at epoch: 25968

The dashed part of the orbit path shows where the satellite is in the earth's shadow,  

DLR